UAE384R VTBS-VHHH

Flight info

Callsign UAE384R
Flight time 2h 8m
Altitude 39000
Route SELKA1F SELKA A1 SANOT Y15 GUROK A202 VILAO/K0861F390 A202 ASSAD/K0861S1190 A202 SAMAS/K0667S0630 A202 SIKOU/N0455F370 V571 CANTO
Aircraft A388/J-SADE2E3FGHIJ3J4J5M1RWXY/LB1D1

Departure

Time 2026-05-05 09:49
Airport Suvarnabhumi Airport (VTBS)

Arrival

Time 2026-05-05 11:58
Airport Hong Kong International Airport (VHHH)
Time Latitude Longitude Altitude Speed Heading
2026-05-05 09:19 13.68128 100.74820 18 ft 0 kts 14°
2026-05-05 09:33 13.68126 100.74820 18 ft 2 kts 14°
2026-05-05 09:33 13.68102 100.74812 18 ft 4 kts 21°
2026-05-05 09:34 13.68078 100.74801 18 ft 4 kts 31°
2026-05-05 09:34 13.68057 100.74784 18 ft 4 kts 54°
2026-05-05 09:34 13.68049 100.74764 21 ft 1 kts 104°
2026-05-05 09:34 13.68049 100.74763 18 ft 0 kts 104°
2026-05-05 09:37 13.68042 100.74795 18 ft 9 kts 103°
2026-05-05 09:38 13.68023 100.74871 21 ft 10 kts 105°
2026-05-05 09:38 13.68004 100.74940 18 ft 10 kts 109°
2026-05-05 09:38 13.67968 100.74967 23 ft 8 kts 169°
2026-05-05 09:38 13.67923 100.74949 20 ft 8 kts 239°
2026-05-05 09:39 13.67921 100.74889 22 ft 11 kts 284°
2026-05-05 09:39 13.67945 100.74788 21 ft 17 kts 284°
2026-05-05 09:39 13.67979 100.74650 18 ft 22 kts 284°
2026-05-05 09:39 13.68013 100.74509 22 ft 21 kts 284°
2026-05-05 09:40 13.68044 100.74386 19 ft 15 kts 284°
2026-05-05 09:40 13.68074 100.74267 19 ft 20 kts 284°
2026-05-05 09:40 13.68112 100.74116 21 ft 23 kts 284°
2026-05-05 09:40 13.68129 100.74049 21 ft 11 kts 284°
2026-05-05 09:41 13.68150 100.73970 18 ft 7 kts 302°
2026-05-05 09:41 13.68200 100.73943 21 ft 10 kts
2026-05-05 09:41 13.68278 100.73960 21 ft 13 kts 14°
2026-05-05 09:41 13.68378 100.73985 20 ft 16 kts 14°
2026-05-05 09:42 13.68492 100.74015 22 ft 18 kts 15°
2026-05-05 09:42 13.68604 100.74045 23 ft 14 kts 14°
2026-05-05 09:42 13.68709 100.74074 20 ft 17 kts 15°
2026-05-05 09:42 13.68827 100.74106 22 ft 18 kts 15°
2026-05-05 09:43 13.68958 100.74141 21 ft 20 kts 14°
2026-05-05 09:43 13.69096 100.74177 21 ft 17 kts 14°
2026-05-05 09:43 13.69217 100.74209 20 ft 19 kts 14°
2026-05-05 09:43 13.69351 100.74244 19 ft 21 kts 14°
2026-05-05 09:44 13.69496 100.74281 19 ft 22 kts 14°
2026-05-05 09:44 13.69645 100.74321 19 ft 22 kts 14°
2026-05-05 09:44 13.69799 100.74361 20 ft 21 kts 14°
2026-05-05 09:44 13.69854 100.74375 18 ft 8 kts 14°
2026-05-05 09:45 13.69886 100.74375 20 ft 1 kts 336°
2026-05-05 09:45 13.69889 100.74374 20 ft 0 kts 322°
2026-05-05 09:45 13.69889 100.74373 18 ft 0 kts 319°
2026-05-05 09:45 13.69908 100.74347 19 ft 9 kts 278°
2026-05-05 09:46 13.69923 100.74262 18 ft 15 kts 283°
2026-05-05 09:46 13.69952 100.74140 19 ft 20 kts 285°
2026-05-05 09:46 13.69969 100.74076 18 ft 2 kts 285°
2026-05-05 09:46 13.69978 100.74041 19 ft 8 kts 285°
2026-05-05 09:47 13.69997 100.73966 19 ft 12 kts 285°
2026-05-05 09:47 13.70014 100.73885 23 ft 8 kts 268°
2026-05-05 09:47 13.69982 100.73835 21 ft 10 kts 201°
2026-05-05 09:47 13.69967 100.73830 19 ft 0 kts 195°
2026-05-05 09:48 13.69905 100.73812 18 ft 25 kts 194°
2026-05-05 09:49 13.69568 100.73727 19 ft 88 kts 195°
2026-05-05 09:49 13.68745 100.73507 18 ft 151 kts 194°
2026-05-05 09:49 13.67621 100.73206 278 ft 171 kts 194°
2026-05-05 09:49 13.66484 100.72874 858 ft 168 kts 195°
2026-05-05 09:50 13.65362 100.72551 1434 ft 167 kts 194°
2026-05-05 09:50 13.64198 100.72415 1878 ft 176 kts 170°
2026-05-05 09:50 13.63067 100.73013 2113 ft 193 kts 133°
2026-05-05 09:50 13.62481 100.74230 2620 ft 192 kts 98°
2026-05-05 09:51 13.62534 100.75589 3154 ft 189 kts 79°
2026-05-05 09:51 13.62777 100.76910 3682 ft 189 kts 79°
2026-05-05 09:51 13.62959 100.78269 4207 ft 197 kts 84°
2026-05-05 09:51 13.63047 100.79663 5020 ft 196 kts 86°
2026-05-05 09:52 13.63094 100.81084 5791 ft 201 kts 84°
2026-05-05 09:52 13.63335 100.82490 6621 ft 199 kts 73°
2026-05-05 09:52 13.63749 100.83884 7212 ft 212 kts 73°
2026-05-05 09:52 13.64185 100.85416 7629 ft 234 kts 74°
2026-05-05 09:53 13.64647 100.87088 8013 ft 256 kts 74°
2026-05-05 09:53 13.65145 100.88903 8371 ft 278 kts 75°
2026-05-05 09:53 13.65685 100.90858 8990 ft 287 kts 75°
2026-05-05 09:53 13.66243 100.92855 9698 ft 293 kts 74°
2026-05-05 09:54 13.66810 100.94887 9954 ft 296 kts 75°
2026-05-05 09:54 13.67375 100.96925 10003 ft 297 kts 75°
2026-05-05 09:54 13.67943 100.98972 10054 ft 298 kts 75°
2026-05-05 09:54 13.68519 101.01055 10127 ft 307 kts 75°
2026-05-05 09:55 13.69120 101.03237 10289 ft 328 kts 75°
2026-05-05 09:55 13.69759 101.05552 10559 ft 344 kts 75°
2026-05-05 09:55 13.70418 101.07930 11158 ft 348 kts 75°
2026-05-05 09:55 13.71130 101.10326 11825 ft 351 kts 70°
2026-05-05 09:56 13.72202 101.12600 12448 ft 356 kts 59°
2026-05-05 09:56 13.73672 101.14664 13117 ft 360 kts 50°
2026-05-05 09:56 13.75303 101.16604 13729 ft 364 kts 50°
2026-05-05 09:56 13.76947 101.18604 14317 ft 367 kts 50°
2026-05-05 09:57 13.78594 101.20625 14916 ft 370 kts 50°
2026-05-05 09:57 13.80253 101.22666 15482 ft 373 kts 50°
2026-05-05 09:57 13.81934 101.24731 16054 ft 377 kts 50°
2026-05-05 09:57 13.83627 101.26810 16644 ft 380 kts 50°
2026-05-05 09:58 13.85335 101.28903 17182 ft 383 kts 50°
2026-05-05 09:58 13.87059 101.31015 17740 ft 387 kts 50°
2026-05-05 09:58 13.88780 101.33122 18217 ft 391 kts 50°
2026-05-05 09:58 13.90535 101.35274 18685 ft 394 kts 50°
2026-05-05 09:59 13.92307 101.37448 19122 ft 398 kts 49°
2026-05-05 09:59 13.94093 101.39640 19567 ft 401 kts 50°
2026-05-05 09:59 13.95893 101.41849 20002 ft 405 kts 49°
2026-05-05 09:59 13.97711 101.44078 20447 ft 407 kts 49°
2026-05-05 10:00 13.99538 101.46322 20897 ft 410 kts 49°
2026-05-05 10:00 14.01380 101.48584 21348 ft 412 kts 49°
2026-05-05 10:00 14.03226 101.50854 21761 ft 415 kts 49°
2026-05-05 10:00 14.05088 101.53141 22169 ft 419 kts 49°
2026-05-05 10:01 14.06966 101.55450 22598 ft 421 kts 49°
2026-05-05 10:01 14.08855 101.57773 23020 ft 424 kts 49°
2026-05-05 10:01 14.10759 101.60114 23429 ft 427 kts 49°
2026-05-05 10:01 14.12671 101.62467 23790 ft 430 kts 49°
2026-05-05 10:02 14.14572 101.64807 24140 ft 432 kts 49°
2026-05-05 10:02 14.16503 101.67183 24483 ft 434 kts 49°
2026-05-05 10:02 14.18445 101.69575 24804 ft 437 kts 49°
2026-05-05 10:02 14.20397 101.71980 25152 ft 439 kts 49°
2026-05-05 10:03 14.22362 101.74400 25524 ft 441 kts 49°
2026-05-05 10:03 14.24333 101.76831 25876 ft 443 kts 49°
2026-05-05 10:03 14.26314 101.79273 26241 ft 446 kts 49°
2026-05-05 10:03 14.28310 101.81734 26594 ft 448 kts 49°
2026-05-05 10:04 14.29640 101.83377 26819 ft 450 kts 49°
2026-05-05 10:04 14.31632 101.85876 27192 ft 453 kts 52°
2026-05-05 10:04 14.33366 101.88549 27573 ft 456 kts 59°
2026-05-05 10:04 14.34804 101.91473 27965 ft 460 kts 66°
2026-05-05 10:05 14.35927 101.94582 28367 ft 463 kts 70°
2026-05-05 10:05 14.36982 101.97728 28779 ft 466 kts 70°
2026-05-05 10:05 14.38061 102.00888 29204 ft 469 kts 70°
2026-05-05 10:05 14.39151 102.04068 29633 ft 472 kts 70°
2026-05-05 10:06 14.40251 102.07279 30011 ft 476 kts 70°
2026-05-05 10:06 14.41354 102.10511 30420 ft 479 kts 70°
2026-05-05 10:06 14.42461 102.13761 30868 ft 481 kts 70°
2026-05-05 10:06 14.43556 102.16981 31290 ft 483 kts 70°
2026-05-05 10:07 14.44671 102.20264 31707 ft 486 kts 70°
2026-05-05 10:07 14.45788 102.23554 32123 ft 488 kts 70°
2026-05-05 10:07 14.46916 102.26873 32531 ft 491 kts 70°
2026-05-05 10:07 14.48050 102.30214 32942 ft 494 kts 70°
2026-05-05 10:08 14.49188 102.33565 33338 ft 496 kts 70°
2026-05-05 10:08 14.50332 102.36939 33714 ft 499 kts 70°
2026-05-05 10:08 14.51481 102.40332 34090 ft 502 kts 70°
2026-05-05 10:08 14.52636 102.43745 34388 ft 505 kts 70°
2026-05-05 10:09 14.53795 102.47184 34747 ft 507 kts 70°
2026-05-05 10:09 14.54956 102.50617 35234 ft 506 kts 70°
2026-05-05 10:09 14.56113 102.54035 35821 ft 504 kts 70°
2026-05-05 10:09 14.57268 102.57448 36364 ft 503 kts 70°
2026-05-05 10:10 14.58421 102.60850 36896 ft 500 kts 70°
2026-05-05 10:10 14.59565 102.64244 37397 ft 500 kts 70°
2026-05-05 10:10 14.60713 102.67641 37713 ft 503 kts 70°
2026-05-05 10:10 14.61853 102.71006 38168 ft 502 kts 71°
2026-05-05 10:11 14.62995 102.74397 38617 ft 501 kts 71°
2026-05-05 10:11 14.64146 102.77818 38832 ft 505 kts 71°
2026-05-05 10:11 14.66424 102.84602 38864 ft 498 kts 71°
2026-05-05 10:12 14.68698 102.91373 38861 ft 500 kts 71°
2026-05-05 10:12 14.70956 102.98122 38861 ft 499 kts 71°
2026-05-05 10:13 14.73226 103.04907 38864 ft 499 kts 70°
2026-05-05 10:13 14.75507 103.11691 38864 ft 501 kts 71°
2026-05-05 10:14 14.77789 103.18512 38881 ft 503 kts 71°
2026-05-05 10:14 14.80074 103.25352 38880 ft 504 kts 71°
2026-05-05 10:15 14.82359 103.32202 38887 ft 505 kts 71°
2026-05-05 10:15 14.84786 103.39008 38877 ft 503 kts 64°
2026-05-05 10:16 14.88181 103.45274 38847 ft 500 kts 55°
2026-05-05 10:16 14.92464 103.50850 38848 ft 498 kts 47°
2026-05-05 10:17 14.96994 103.56311 38837 ft 500 kts 48°
2026-05-05 10:17 15.01521 103.61797 38857 ft 503 kts 48°
2026-05-05 10:18 15.06064 103.67298 38847 ft 503 kts 49°
2026-05-05 10:18 15.10605 103.72813 38871 ft 505 kts 48°
2026-05-05 10:19 15.15717 103.77752 38869 ft 501 kts 35°
2026-05-05 10:19 15.21673 103.81436 38854 ft 497 kts 23°
2026-05-05 10:20 15.28044 103.84204 38845 ft 496 kts 21°
2026-05-05 10:20 15.34382 103.86993 38840 ft 498 kts 21°
2026-05-05 10:21 15.40775 103.89801 38847 ft 499 kts 20°
2026-05-05 10:21 15.47163 103.92626 38841 ft 499 kts 22°
2026-05-05 10:22 15.53523 103.95436 38841 ft 499 kts 21°
2026-05-05 10:22 15.59937 103.98249 38847 ft 500 kts 21°
2026-05-05 10:23 15.66345 104.01067 38845 ft 501 kts 21°
2026-05-05 10:23 15.72734 104.03898 38830 ft 497 kts 22°
2026-05-05 10:24 15.79116 104.06717 38836 ft 498 kts 21°
2026-05-05 10:24 15.85514 104.09511 38829 ft 499 kts 20°
2026-05-05 10:25 15.91823 104.12314 38806 ft 496 kts 22°
2026-05-05 10:25 15.98180 104.15120 38824 ft 499 kts 21°
2026-05-05 10:26 16.04342 104.18483 38854 ft 503 kts 32°
2026-05-05 10:26 16.09786 104.23086 38866 ft 507 kts 43°
2026-05-05 10:27 16.14568 104.28490 38893 ft 509 kts 46°
2026-05-05 10:27 16.19348 104.33940 38896 ft 510 kts 46°
2026-05-05 10:28 16.24127 104.39397 38904 ft 510 kts 47°
2026-05-05 10:28 16.28878 104.44852 38883 ft 508 kts 47°
2026-05-05 10:29 16.33567 104.50288 38876 ft 507 kts 47°
2026-05-05 10:29 16.38272 104.55755 38870 ft 506 kts 47°
2026-05-05 10:30 16.42958 104.61215 38859 ft 505 kts 47°
2026-05-05 10:30 16.47645 104.66683 38863 ft 504 kts 47°
2026-05-05 10:31 16.52328 104.72131 38861 ft 504 kts 47°
2026-05-05 10:31 16.56838 104.77756 38832 ft 507 kts 53°
2026-05-05 10:32 16.60686 104.83927 38829 ft 508 kts 56°
2026-05-05 10:32 16.64482 104.90087 38848 ft 509 kts 56°
2026-05-05 10:33 16.68320 104.96303 38864 ft 510 kts 56°
2026-05-05 10:33 16.72158 105.02523 38871 ft 510 kts 56°
2026-05-05 10:34 16.75998 105.08765 38878 ft 511 kts 56°
2026-05-05 10:34 16.79835 105.15011 38877 ft 511 kts 56°
2026-05-05 10:35 16.83648 105.21223 38870 ft 512 kts 56°
2026-05-05 10:35 16.87489 105.27488 38874 ft 512 kts 56°
2026-05-05 10:36 16.91323 105.33757 38868 ft 512 kts 56°
2026-05-05 10:36 16.95163 105.40041 38874 ft 513 kts 56°
2026-05-05 10:37 16.99003 105.46330 38881 ft 513 kts 56°
2026-05-05 10:37 17.02839 105.52618 38885 ft 513 kts 56°
2026-05-05 10:38 17.06672 105.58908 38881 ft 513 kts 56°
2026-05-05 10:38 17.10507 105.65205 38886 ft 513 kts 56°
2026-05-05 10:39 17.14314 105.71463 38904 ft 512 kts 56°
2026-05-05 10:39 17.18134 105.77747 38904 ft 512 kts 56°
2026-05-05 10:40 17.21946 105.84025 38904 ft 511 kts 56°
2026-05-05 10:40 17.25753 105.90301 38907 ft 510 kts 56°
2026-05-05 10:41 17.29558 105.96577 38909 ft 510 kts 56°
2026-05-05 10:41 17.33352 106.02846 38903 ft 511 kts 56°
2026-05-05 10:42 17.39081 106.12269 38909 ft 510 kts 56°
2026-05-05 10:43 17.42937 106.18494 38931 ft 508 kts 56°
2026-05-05 10:43 17.46739 106.24664 38943 ft 507 kts 56°
2026-05-05 10:44 17.50583 106.30910 38940 ft 506 kts 56°
2026-05-05 10:44 17.54371 106.37072 38920 ft 506 kts 56°
2026-05-05 10:45 17.58180 106.43275 38904 ft 505 kts 56°
2026-05-05 10:45 17.61984 106.49485 38909 ft 505 kts 56°
2026-05-05 10:46 17.65810 106.55686 38897 ft 506 kts 55°
2026-05-05 10:46 17.69598 106.61906 38897 ft 505 kts 56°
2026-05-05 10:47 17.73351 106.68071 38882 ft 505 kts 56°
2026-05-05 10:47 17.77137 106.74286 38872 ft 505 kts 56°
2026-05-05 10:48 17.80916 106.80504 38869 ft 505 kts 56°
2026-05-05 10:48 17.84707 106.86718 38865 ft 506 kts 55°
2026-05-05 10:49 17.88508 106.92967 38897 ft 509 kts 56°
2026-05-05 10:49 17.92323 106.99230 38907 ft 509 kts 55°
2026-05-05 10:50 17.96150 107.05493 38906 ft 510 kts 55°
2026-05-05 10:50 17.99978 107.11766 38899 ft 510 kts 55°
2026-05-05 10:51 18.03159 107.16986 38906 ft 510 kts 55°
2026-05-05 10:51 18.07602 107.24283 38907 ft 510 kts 55°
2026-05-05 10:52 18.11418 107.30565 38902 ft 509 kts 55°
2026-05-05 10:52 18.15229 107.36848 38902 ft 509 kts 55°
2026-05-05 10:53 18.18395 107.42072 38893 ft 509 kts 55°
2026-05-05 10:53 18.22194 107.48346 38897 ft 509 kts 55°
2026-05-05 10:54 18.25996 107.54630 38899 ft 509 kts 55°
2026-05-05 10:54 18.29796 107.60915 38891 ft 509 kts 55°
2026-05-05 10:55 18.33616 107.67199 38882 ft 509 kts 53°
2026-05-05 10:55 18.38009 107.73019 38884 ft 507 kts 47°
2026-05-05 10:56 18.42489 107.78703 38908 ft 507 kts 48°
2026-05-05 10:56 18.46993 107.84436 38908 ft 507 kts 48°
2026-05-05 10:57 18.51490 107.90157 38907 ft 507 kts 48°
2026-05-05 10:57 18.55992 107.95887 38901 ft 507 kts 48°
2026-05-05 10:58 18.60485 108.01611 38914 ft 507 kts 48°
2026-05-05 10:58 18.64981 108.07344 38912 ft 507 kts 48°
2026-05-05 10:59 18.69468 108.13071 38895 ft 507 kts 48°
2026-05-05 10:59 18.73932 108.18774 38892 ft 507 kts 48°
2026-05-05 11:00 18.78417 108.24509 38890 ft 507 kts 48°
2026-05-05 11:00 18.82905 108.30252 38893 ft 507 kts 48°
2026-05-05 11:01 18.87393 108.36001 38925 ft 507 kts 48°
2026-05-05 11:01 18.91873 108.41746 38920 ft 507 kts 48°
2026-05-05 11:02 18.96360 108.47505 38900 ft 506 kts 48°
2026-05-05 11:02 19.00804 108.53214 38898 ft 506 kts 48°
2026-05-05 11:03 19.05274 108.58961 38899 ft 506 kts 48°
2026-05-05 11:03 19.09738 108.64706 38899 ft 505 kts 48°
2026-05-05 11:04 19.14201 108.70455 38894 ft 505 kts 48°
2026-05-05 11:04 19.18657 108.76201 38902 ft 505 kts 48°
2026-05-05 11:05 19.23113 108.81952 38893 ft 505 kts 48°
2026-05-05 11:05 19.27566 108.87703 38897 ft 505 kts 48°
2026-05-05 11:06 19.31991 108.93425 38899 ft 505 kts 48°
2026-05-05 11:06 19.36442 108.99184 38900 ft 505 kts 48°
2026-05-05 11:07 19.40888 109.04942 38901 ft 505 kts 48°
2026-05-05 11:07 19.45335 109.10708 38897 ft 506 kts 48°
2026-05-05 11:08 19.49795 109.16494 38901 ft 506 kts 47°
2026-05-05 11:08 19.54240 109.22282 38905 ft 506 kts 48°
2026-05-05 11:09 19.58632 109.28063 38906 ft 507 kts 48°
2026-05-05 11:09 19.63062 109.33898 38907 ft 507 kts 48°
2026-05-05 11:10 19.67485 109.39723 38906 ft 507 kts 48°
2026-05-05 11:10 19.71909 109.45555 38917 ft 507 kts 47°
2026-05-05 11:11 19.76347 109.51407 38896 ft 508 kts 47°
2026-05-05 11:11 19.80776 109.57257 38902 ft 509 kts 47°
2026-05-05 11:12 19.85193 109.63096 38907 ft 509 kts 48°
2026-05-05 11:12 19.89630 109.68967 38912 ft 510 kts 48°
2026-05-05 11:13 19.94072 109.74850 38916 ft 510 kts 48°
2026-05-05 11:13 19.98509 109.80733 38919 ft 510 kts 47°
2026-05-05 11:14 20.02918 109.86585 38920 ft 509 kts 47°
2026-05-05 11:14 20.07347 109.92469 38919 ft 509 kts 47°
2026-05-05 11:15 20.11772 109.98353 38914 ft 509 kts 47°
2026-05-05 11:15 20.16190 110.04233 38917 ft 508 kts 47°
2026-05-05 11:16 20.20609 110.10121 38920 ft 508 kts 47°
2026-05-05 11:16 20.24987 110.15962 38915 ft 508 kts 47°
2026-05-05 11:17 20.29400 110.21853 38931 ft 508 kts 47°
2026-05-05 11:17 20.33834 110.27708 38933 ft 507 kts 46°
2026-05-05 11:18 20.38299 110.33519 38927 ft 506 kts 46°
2026-05-05 11:18 20.42754 110.39339 38929 ft 506 kts 47°
2026-05-05 11:19 20.47164 110.45190 38925 ft 508 kts 50°
2026-05-05 11:19 20.50871 110.51640 38920 ft 513 kts 60°
2026-05-05 11:20 20.53582 110.58660 38927 ft 517 kts 67°
2026-05-05 11:20 20.56017 110.65877 38920 ft 516 kts 66°
2026-05-05 11:21 20.58460 110.73089 38921 ft 516 kts 67°
2026-05-05 11:21 20.60891 110.80311 38921 ft 516 kts 67°
2026-05-05 11:22 20.63300 110.87486 38914 ft 516 kts 67°
2026-05-05 11:22 20.65727 110.94709 38917 ft 517 kts 66°
2026-05-05 11:23 20.68171 111.01923 38922 ft 517 kts 66°
2026-05-05 11:23 20.70618 111.09158 38923 ft 517 kts 66°
2026-05-05 11:24 20.73062 111.16405 38918 ft 518 kts 67°
2026-05-05 11:24 20.75502 111.23653 38923 ft 519 kts 67°
2026-05-05 11:25 20.77931 111.30880 38928 ft 520 kts 67°
2026-05-05 11:25 20.80373 111.38159 38936 ft 520 kts 67°
2026-05-05 11:26 20.82813 111.45440 38937 ft 520 kts 67°
2026-05-05 11:26 20.85255 111.52729 38937 ft 520 kts 67°
2026-05-05 11:27 20.87719 111.60013 38939 ft 520 kts 66°
2026-05-05 11:27 20.90178 111.67282 38941 ft 520 kts 66°
2026-05-05 11:28 20.92621 111.74525 38938 ft 520 kts 67°
2026-05-05 11:28 20.95068 111.81796 38926 ft 520 kts 67°
2026-05-05 11:29 20.97515 111.89081 38934 ft 520 kts 67°
2026-05-05 11:29 20.99959 111.96366 38935 ft 520 kts 66°
2026-05-05 11:30 21.02403 112.03665 38940 ft 520 kts 66°
2026-05-05 11:30 21.04842 112.10958 38940 ft 521 kts 66°
2026-05-05 11:31 21.07283 112.18269 38936 ft 521 kts 66°
2026-05-05 11:31 21.09722 112.25588 38941 ft 521 kts 66°
2026-05-05 11:32 21.12158 112.32909 38948 ft 522 kts 67°
2026-05-05 11:32 21.14581 112.40207 38610 ft 515 kts 67°
2026-05-05 11:32 21.15765 112.43773 37860 ft 516 kts 66°
2026-05-05 11:33 21.16976 112.47417 36800 ft 523 kts 67°
2026-05-05 11:33 21.18206 112.51124 35749 ft 530 kts 67°
2026-05-05 11:33 21.19443 112.54859 35025 ft 530 kts 67°
2026-05-05 11:33 21.20667 112.58566 34476 ft 527 kts 67°
2026-05-05 11:34 21.21886 112.62260 33722 ft 527 kts 67°
2026-05-05 11:34 21.23111 112.65971 32850 ft 528 kts 67°
2026-05-05 11:34 21.24328 112.69664 32313 ft 522 kts 67°
2026-05-05 11:34 21.25527 112.73307 31953 ft 514 kts 67°
2026-05-05 11:35 21.26716 112.76916 31226 ft 513 kts 67°
2026-05-05 11:35 21.27909 112.80537 30442 ft 515 kts 67°
2026-05-05 11:35 21.29097 112.84146 29971 ft 509 kts 67°
2026-05-05 11:35 21.30264 112.87704 29397 ft 503 kts 67°
2026-05-05 11:36 21.31419 112.91221 28789 ft 498 kts 67°
2026-05-05 11:36 21.32561 112.94698 28180 ft 493 kts 68°
2026-05-05 11:36 21.33696 112.98160 27569 ft 489 kts 68°
2026-05-05 11:36 21.34820 113.01590 26955 ft 485 kts 68°
2026-05-05 11:37 21.35925 113.04965 26115 ft 487 kts 68°
2026-05-05 11:37 21.37043 113.08380 25537 ft 482 kts 69°
2026-05-05 11:37 21.38141 113.11741 25156 ft 472 kts 69°
2026-05-05 11:37 21.39223 113.15052 24526 ft 469 kts 69°
2026-05-05 11:38 21.40310 113.18377 23745 ft 472 kts 69°
2026-05-05 11:38 21.41384 113.21671 23324 ft 463 kts 69°
2026-05-05 11:38 21.42440 113.24915 22642 ft 458 kts 69°
2026-05-05 11:38 21.43494 113.28152 21867 ft 458 kts 69°
2026-05-05 11:39 21.44535 113.31354 21444 ft 449 kts 69°
2026-05-05 11:39 21.45554 113.34488 20950 ft 442 kts 69°
2026-05-05 11:39 21.46567 113.37602 20121 ft 444 kts 69°
2026-05-05 11:39 21.47580 113.40719 19594 ft 439 kts 69°
2026-05-05 11:40 21.48574 113.43778 19208 ft 429 kts 69°
2026-05-05 11:40 21.49541 113.46753 18513 ft 429 kts 69°
2026-05-05 11:40 21.50532 113.49804 17521 ft 435 kts 70°
2026-05-05 11:40 21.51520 113.52857 16775 ft 430 kts 70°
2026-05-05 11:41 21.52567 113.55827 15941 ft 422 kts 63°
2026-05-05 11:41 21.54017 113.58535 15145 ft 413 kts 52°
2026-05-05 11:41 21.55182 113.60141 14600 ft 407 kts 46°
2026-05-05 11:41 21.57830 113.62982 13529 ft 398 kts 41°
2026-05-05 11:42 21.59798 113.65058 12601 ft 394 kts 42°
2026-05-05 11:42 21.61088 113.66431 12033 ft 392 kts 43°
2026-05-05 11:42 21.63004 113.68476 11237 ft 385 kts 43°
2026-05-05 11:42 21.64883 113.70482 10428 ft 379 kts 43°
2026-05-05 11:43 21.66764 113.72446 9697 ft 371 kts 41°
2026-05-05 11:43 21.68578 113.74270 9463 ft 347 kts 41°
2026-05-05 11:43 21.70301 113.75999 9035 ft 332 kts 42°
2026-05-05 11:43 21.72019 113.77697 8274 ft 332 kts 41°
2026-05-05 11:44 21.73695 113.79296 8427 ft 316 kts 39°
2026-05-05 11:44 21.75322 113.80814 8381 ft 300 kts 40°
2026-05-05 11:44 21.76823 113.82242 8524 ft 276 kts 40°
2026-05-05 11:44 21.78188 113.83560 9155 ft 253 kts 40°
2026-05-05 11:45 21.79400 113.84749 9623 ft 220 kts 41°
2026-05-05 11:45 21.80527 113.85878 9321 ft 224 kts 41°
2026-05-05 11:45 21.81668 113.87022 8961 ft 229 kts 37°
2026-05-05 11:45 21.83105 113.87933 8697 ft 247 kts 25°
2026-05-05 11:46 21.84616 113.88819 8434 ft 245 kts 19°
2026-05-05 11:46 21.86274 113.89152 8059 ft 242 kts 354°
2026-05-05 11:46 21.87895 113.88706 7607 ft 240 kts 332°
2026-05-05 11:46 21.89337 113.87917 6969 ft 230 kts 329°
2026-05-05 11:47 21.90773 113.87115 6065 ft 232 kts 329°
2026-05-05 11:47 21.92219 113.86318 5273 ft 227 kts 332°
2026-05-05 11:47 21.93529 113.85611 5118 ft 201 kts 329°
2026-05-05 11:47 21.94804 113.84898 4996 ft 208 kts 330°
2026-05-05 11:48 21.97447 113.83601 4741 ft 208 kts 337°
2026-05-05 11:48 21.98791 113.83040 4700 ft 206 kts 336°
2026-05-05 11:48 22.00122 113.82473 4604 ft 206 kts 335°
2026-05-05 11:49 22.01486 113.81874 4312 ft 216 kts 336°
2026-05-05 11:49 22.02876 113.81259 3952 ft 210 kts 336°
2026-05-05 11:49 22.04203 113.80662 3635 ft 204 kts 337°
2026-05-05 11:49 22.05491 113.80094 3285 ft 197 kts 338°
2026-05-05 11:50 22.06770 113.79536 3001 ft 200 kts 338°
2026-05-05 11:50 22.08071 113.78915 2924 ft 199 kts 335°
2026-05-05 11:50 22.09313 113.78298 2845 ft 195 kts 336°
2026-05-05 11:50 22.10535 113.77692 2685 ft 191 kts 336°
2026-05-05 11:51 22.11731 113.77094 2453 ft 191 kts 338°
2026-05-05 11:51 22.12878 113.76505 2604 ft 180 kts 335°
2026-05-05 11:51 22.13986 113.75914 3050 ft 176 kts 335°
2026-05-05 11:51 22.15102 113.75320 3361 ft 180 kts 333°
2026-05-05 11:52 22.16258 113.74700 3374 ft 185 kts 335°
2026-05-05 11:52 22.17444 113.74102 3169 ft 195 kts 337°
2026-05-05 11:52 22.18660 113.73496 3080 ft 196 kts 336°
2026-05-05 11:52 22.19917 113.72843 3073 ft 204 kts 334°
2026-05-05 11:53 22.21179 113.72161 3046 ft 204 kts 336°
2026-05-05 11:53 22.22485 113.71714 2904 ft 199 kts 357°
2026-05-05 11:53 22.23829 113.71888 2521 ft 194 kts 23°
2026-05-05 11:53 22.24937 113.72632 2248 ft 175 kts 46°
2026-05-05 11:54 22.25718 113.73491 2269 ft 161 kts 45°
2026-05-05 11:54 22.26585 113.74336 2379 ft 172 kts 43°
2026-05-05 11:54 22.27453 113.75157 2447 ft 167 kts 49°
2026-05-05 11:54 22.28121 113.76088 2354 ft 143 kts 64°
2026-05-05 11:55 22.28523 113.77039 2153 ft 142 kts 71°
2026-05-05 11:55 22.28899 113.78017 2037 ft 133 kts 71°
2026-05-05 11:55 22.29263 113.79039 1938 ft 151 kts 73°
2026-05-05 11:55 22.29577 113.80180 1432 ft 165 kts 76°
2026-05-05 11:56 22.29903 113.81260 1194 ft 135 kts 70°
2026-05-05 11:56 22.30259 113.82230 1092 ft 142 kts 71°
2026-05-05 11:56 22.30572 113.83255 919 ft 138 kts 77°
2026-05-05 11:56 22.30875 113.84184 768 ft 133 kts 70°
2026-05-05 11:57 22.31180 113.85154 653 ft 134 kts 73°
2026-05-05 11:57 22.31487 113.86114 453 ft 145 kts 70°
2026-05-05 11:57 22.31806 113.87096 296 ft 132 kts 73°
2026-05-05 11:57 22.32091 113.88009 103 ft 126 kts 72°
2026-05-05 11:58 22.32358 113.88840 36 ft 98 kts 72°
2026-05-05 11:58 22.32506 113.89299 37 ft 39 kts 70°
2026-05-05 11:58 22.32583 113.89536 37 ft 29 kts 71°
2026-05-05 11:58 22.32644 113.89731 37 ft 27 kts 71°
2026-05-05 11:59 22.32698 113.89922 37 ft 27 kts 80°
2026-05-05 11:59 22.32685 113.90143 37 ft 30 kts 103°
2026-05-05 11:59 22.32657 113.90305 37 ft 18 kts 86°
2026-05-05 11:59 22.32687 113.90432 37 ft 19 kts 69°
2026-05-05 12:00 22.32732 113.90577 37 ft 22 kts 74°
2026-05-05 12:00 22.32780 113.90731 38 ft 21 kts 71°
2026-05-05 12:00 22.32824 113.90869 37 ft 18 kts 71°
2026-05-05 12:00 22.32862 113.90985 37 ft 16 kts 71°
2026-05-05 12:01 22.32898 113.91097 37 ft 15 kts 71°
2026-05-05 12:01 22.32931 113.91202 37 ft 15 kts 71°
2026-05-05 12:01 22.32966 113.91310 37 ft 16 kts 71°
2026-05-05 12:01 22.33005 113.91429 37 ft 17 kts 71°
2026-05-05 12:02 22.33045 113.91552 37 ft 17 kts 71°
2026-05-05 12:02 22.33088 113.91685 37 ft 19 kts 71°
2026-05-05 12:02 22.33130 113.91815 37 ft 18 kts 71°
2026-05-05 12:02 22.33169 113.91937 37 ft 16 kts 71°
2026-05-05 12:03 22.33204 113.92046 37 ft 14 kts 74°
2026-05-05 12:03 22.33179 113.92115 37 ft 9 kts 152°
2026-05-05 12:03 22.33106 113.92154 37 ft 13 kts 156°
2026-05-05 12:03 22.33013 113.92191 37 ft 15 kts 161°
2026-05-05 12:04 22.32916 113.92226 37 ft 15 kts 161°
2026-05-05 12:04 22.32819 113.92261 37 ft 15 kts 161°
2026-05-05 12:04 22.32720 113.92297 37 ft 15 kts 161°
2026-05-05 12:04 22.32621 113.92332 37 ft 15 kts 161°
2026-05-05 12:05 22.32522 113.92368 37 ft 15 kts 161°
2026-05-05 12:05 22.32420 113.92408 37 ft 16 kts 160°
2026-05-05 12:05 22.32317 113.92448 37 ft 14 kts 160°
2026-05-05 12:05 22.32255 113.92476 37 ft 7 kts 140°
2026-05-05 12:06 22.32243 113.92518 37 ft 5 kts 71°
2026-05-05 12:06 22.32243 113.92520 37 ft 0 kts 70°
2026-05-05 12:07 22.32252 113.92547 37 ft 6 kts 70°
2026-05-05 12:08 22.32267 113.92595 37 ft 7 kts 71°
2026-05-05 12:08 22.32285 113.92649 37 ft 8 kts 71°
2026-05-05 12:08 22.32293 113.92719 37 ft 10 kts 116°
2026-05-05 12:08 22.32237 113.92774 37 ft 11 kts 163°
2026-05-05 12:09 22.32141 113.92805 39 ft 15 kts 162°
2026-05-05 12:09 22.32045 113.92839 39 ft 15 kts 161°
2026-05-05 12:09 22.31960 113.92872 37 ft 16 kts 154°
2026-05-05 12:10 22.31877 113.92911 37 ft 13 kts 157°
2026-05-05 12:10 22.31837 113.92973 37 ft 10 kts 85°
2026-05-05 12:10 22.31857 113.93042 37 ft 10 kts 71°
2026-05-05 12:10 22.31865 113.93100 37 ft 6 kts 119°
2026-05-05 12:11 22.31832 113.93133 37 ft 8 kts 148°
2026-05-05 12:11 22.31775 113.93155 37 ft 10 kts 162°
2026-05-05 12:11 22.31707 113.93178 37 ft 11 kts 162°
2026-05-05 12:11 22.31654 113.93196 37 ft 0 kts 158°
2026-05-05 12:12 22.31641 113.93206 37 ft 5 kts 141°
2026-05-05 12:12 22.31625 113.93230 37 ft 4 kts 114°
2026-05-05 12:12 22.31616 113.93256 37 ft 3 kts 110°
2026-05-05 12:13 22.31610 113.93272 37 ft 0 kts 110°